Meteo pe oră la Dab

Astăzi, 17 Aprilie, Sâmbătă

Timp Temperatura Precipitaţii Vânt Presiune Umiditate
00:00 +5°C° 0 mm 3 m/s 749 mmHg 97%
01:00 +5°C° 0 mm 3 m/s 749 mmHg 97%
02:00 +5°C° 0 mm 3 m/s 749 mmHg 97%
03:00 +5°C° 0 mm 3 m/s 749 mmHg 97%
04:00 +5°C° 0 mm 3 m/s 749 mmHg 97%
05:00 +5°C° 0 mm 3 m/s 750 mmHg 95%
06:00 +7°C° 0 mm 3 m/s 750 mmHg 94%
07:00 +7°C° 0 mm 3 m/s 750 mmHg 92%
08:00 +9°C° 0 mm 3 m/s 750 mmHg 87%
09:00 +10°C° 0 mm 3 m/s 750 mmHg 82%
10:00 +11°C° 0 mm 3 m/s 750 mmHg 77%
11:00 +11°C° 0.3 mm 3 m/s 750 mmHg 76%
12:00 +11°C° 0.3 mm 3 m/s 751 mmHg 76%
13:00 +11°C° 0.3 mm 4 m/s 751 mmHg 76%
14:00 +11°C° 0.1 mm 4 m/s 751 mmHg 74%
15:00 +12°C° 0.1 mm 4 m/s 751 mmHg 72%
16:00 +12°C° 0.1 mm 4 m/s 751 mmHg 70%
17:00 +10°C° 0 mm 3 m/s 751 mmHg 76%
18:00 +9°C° 0 mm 3 m/s 751 mmHg 81%
19:00 +8°C° 0 mm 2 m/s 751 mmHg 86%
20:00 +8°C° 0 mm 2 m/s 751 mmHg 88%
21:00 +7°C° 0 mm 2 m/s 751 mmHg 90%
22:00 +7°C° 0 mm 2 m/s 751 mmHg 91%
23:00 +7°C° 0 mm 2 m/s 751 mmHg 93%

Mâine, 18 Aprilie, Duminică

Timp Temperatura Precipitaţii Vânt Presiune Umiditate
00:00 +6°C° 0 mm 2 m/s 752 mmHg 95%
01:00 +6°C° 0 mm 2 m/s 752 mmHg 96%
02:00 +6°C° 0 mm 2 m/s 751 mmHg 96%
03:00 +6°C° 0 mm 2 m/s 751 mmHg 96%
04:00 +6°C° 0 mm 2 m/s 751 mmHg 96%
05:00 +7°C° 0 mm 2 m/s 751 mmHg 93%
06:00 +7°C° 0 mm 2 m/s 751 mmHg 90%
07:00 +8°C° 0 mm 2 m/s 751 mmHg 87%
08:00 +9°C° 0 mm 2 m/s 751 mmHg 85%
09:00 +10°C° 0 mm 2 m/s 751 mmHg 82%
10:00 +11°C° 0 mm 3 m/s 751 mmHg 80%
11:00 +12°C° 0.3 mm 3 m/s 751 mmHg 77%
12:00 +13°C° 0.3 mm 3 m/s 751 mmHg 75%
13:00 +13°C° 0.3 mm 3 m/s 751 mmHg 73%
14:00 +13°C° 0.3 mm 3 m/s 751 mmHg 74%
15:00 +13°C° 0.3 mm 4 m/s 751 mmHg 75%
16:00 +13°C° 0.3 mm 4 m/s 751 mmHg 76%
17:00 +12°C° 0.1 mm 3 m/s 751 mmHg 79%
18:00 +11°C° 0.1 mm 3 m/s 751 mmHg 82%
19:00 +10°C° 0.1 mm 3 m/s 752 mmHg 85%
20:00 +10°C° 0 mm 3 m/s 752 mmHg 86%
21:00 +9°C° 0 mm 2 m/s 752 mmHg 87%
22:00 +9°C° 0 mm 2 m/s 752 mmHg 88%
23:00 +9°C° 0 mm 2 m/s 752 mmHg 88%

Poimâine, 19 Aprilie, Luni

Timp Temperatura Precipitaţii Vânt Presiune Umiditate
00:00 +9°C° 0 mm 2 m/s 752 mmHg 88%
01:00 +9°C° 0 mm 3 m/s 752 mmHg 88%
02:00 +8°C° 0 mm 2 m/s 752 mmHg 88%
03:00 +8°C° 0 mm 2 m/s 752 mmHg 88%
04:00 +7°C° 0 mm 2 m/s 752 mmHg 88%
05:00 +8°C° 0 mm 2 m/s 752 mmHg 87%
06:00 +8°C° 0 mm 3 m/s 752 mmHg 85%
07:00 +9°C° 0 mm 3 m/s 752 mmHg 83%
08:00 +10°C° 0 mm 4 m/s 751 mmHg 73%
09:00 +10°C° 0 mm 5 m/s 751 mmHg 62%
10:00 +13°C° 0 mm 6 m/s 751 mmHg 52%
11:00 +12°C° 0 mm 5 m/s 751 mmHg 54%
12:00 +12°C° 0 mm 5 m/s 751 mmHg 57%
13:00 +10°C° 0 mm 5 m/s 751 mmHg 59%
14:00 +10°C° 0 mm 5 m/s 751 mmHg 62%
15:00 +11°C° 0 mm 4 m/s 750 mmHg 65%
16:00 +10°C° 0 mm 4 m/s 750 mmHg 67%
17:00 +8°C° 0 mm 4 m/s 750 mmHg 70%
18:00 +9°C° 0 mm 3 m/s 750 mmHg 73%
19:00 +8°C° 0 mm 3 m/s 750 mmHg 75%
20:00 +8°C° 0 mm 3 m/s 750 mmHg 75%
21:00 +7°C° 0 mm 3 m/s 750 mmHg 75%
22:00 +7°C° 0 mm 3 m/s 750 mmHg 75%
23:00 +7°C° 0 mm 2 m/s 749 mmHg 75%

20 Aprilie, Marţi

Timp Temperatura Precipitaţii Vânt Presiune Umiditate
00:00 +7°C° 0 mm 2 m/s 749 mmHg 75%
01:00 +7°C° 0 mm 2 m/s 749 mmHg 76%
02:00 +7°C° 0 mm 2 m/s 749 mmHg 77%
03:00 +7°C° 0 mm 2 m/s 748 mmHg 78%
04:00 +7°C° 0 mm 2 m/s 748 mmHg 79%
05:00 +7°C° 0.1 mm 2 m/s 748 mmHg 79%
06:00 +8°C° 0.1 mm 3 m/s 748 mmHg 78%
07:00 +8°C° 0.1 mm 3 m/s 747 mmHg 77%
08:00 +9°C° 0.3 mm 3 m/s 747 mmHg 74%
09:00 +9°C° 0.3 mm 3 m/s 747 mmHg 70%
10:00 +10°C° 0.3 mm 4 m/s 746 mmHg 66%
11:00 +10°C° 0.1 mm 3 m/s 746 mmHg 62%
12:00 +11°C° 0.1 mm 3 m/s 746 mmHg 59%
13:00 +11°C° 0.1 mm 3 m/s 745 mmHg 55%
14:00 +11°C° 0.2 mm 3 m/s 745 mmHg 58%
15:00 +11°C° 0.2 mm 3 m/s 745 mmHg 62%
16:00 +10°C° 0.2 mm 4 m/s 744 mmHg 65%
17:00 +9°C° 0.2 mm 3 m/s 744 mmHg 71%
18:00 +8°C° 0.2 mm 3 m/s 744 mmHg 78%
19:00 +7°C° 0.2 mm 2 m/s 744 mmHg 84%
20:00 +6°C° 0 mm 2 m/s 744 mmHg 87%
21:00 +5°C° 0 mm 2 m/s 743 mmHg 90%
22:00 +4°C° 0 mm 2 m/s 743 mmHg 93%
23:00 +4°C° 0 mm 2 m/s 743 mmHg 93%

21 Aprilie, Miercuri

Timp Temperatura Precipitaţii Vânt Presiune Umiditate
00:00 +2°C° 0 mm 3 m/s 742 mmHg 93%
01:00 +2°C° 0 mm 3 m/s 742 mmHg 93%
02:00 +2°C° 0 mm 3 m/s 742 mmHg 93%
03:00 +2°C° 0 mm 3 m/s 741 mmHg 93%
04:00 +1°C° 0 mm 3 m/s 741 mmHg 94%
05:00 +2°C° 0 mm 3 m/s 741 mmHg 90%
06:00 +3°C° 0 mm 4 m/s 741 mmHg 87%
07:00 +4°C° 0 mm 4 m/s 741 mmHg 84%
08:00 +6°C° 0 mm 4 m/s 741 mmHg 77%
09:00 +7°C° 0 mm 4 m/s 741 mmHg 70%
10:00 +8°C° 0 mm 5 m/s 742 mmHg 63%
11:00 +8°C° 0 mm 5 m/s 742 mmHg 60%
12:00 +9°C° 0 mm 5 m/s 742 mmHg 57%
13:00 +9°C° 0 mm 5 m/s 742 mmHg 54%
14:00 +10°C° 0 mm 4 m/s 742 mmHg 53%
15:00 +10°C° 0 mm 4 m/s 742 mmHg 52%
16:00 +11°C° 0 mm 4 m/s 742 mmHg 51%
17:00 +9°C° 0 mm 3 m/s 743 mmHg 59%
18:00 +8°C° 0 mm 2 m/s 743 mmHg 68%
19:00 +6°C° 0 mm 2 m/s 743 mmHg 76%
20:00 +6°C° 0 mm 1 m/s 744 mmHg 78%
21:00 +6°C° 0 mm 1 m/s 744 mmHg 80%
22:00 +4°C° 0 mm 0 m/s 744 mmHg 82%
23:00 +5°C° 0 mm 1 m/s 744 mmHg 83%

22 Aprilie, Joi

Timp Temperatura Precipitaţii Vânt Presiune Umiditate
00:00 +5°C° 0 mm 1 m/s 744 mmHg 84%
01:00 +5°C° 0 mm 1 m/s 744 mmHg 85%
02:00 +3°C° 0 mm 2 m/s 745 mmHg 85%
03:00 +3°C° 0 mm 2 m/s 745 mmHg 86%
04:00 +3°C° 0 mm 2 m/s 745 mmHg 86%
05:00 +5°C° 0 mm 2 m/s 745 mmHg 80%
06:00 +7°C° 0 mm 3 m/s 745 mmHg 74%
07:00 +8°C° 0 mm 3 m/s 745 mmHg 67%
08:00 +10°C° 0 mm 3 m/s 746 mmHg 61%
09:00 +12°C° 0 mm 4 m/s 746 mmHg 55%
10:00 +14°C° 0 mm 4 m/s 746 mmHg 48%
11:00 +15°C° 0 mm 4 m/s 746 mmHg 48%
12:00 +17°C° 0 mm 4 m/s 746 mmHg 47%
13:00 +16°C° 0 mm 5 m/s 746 mmHg 46%
14:00 +17°C° 0 mm 4 m/s 746 mmHg 50%
15:00 +15°C° 0 mm 4 m/s 746 mmHg 55%
16:00 +16°C° 0 mm 3 m/s 746 mmHg 59%
17:00 +14°C° 0.1 mm 3 m/s 746 mmHg 64%
18:00 +12°C° 0.1 mm 3 m/s 746 mmHg 70%
19:00 +11°C° 0.1 mm 3 m/s 746 mmHg 75%
20:00 +11°C° 0 mm 3 m/s 746 mmHg 76%
21:00 +10°C° 0 mm 3 m/s 746 mmHg 77%
22:00 +10°C° 0 mm 3 m/s 747 mmHg 77%
23:00 +9°C° 0 mm 3 m/s 747 mmHg 80%
Arată mai mult

Formular de consimțământ

Meteoprog și furnizorii noștri de servicii pot stoca și accesa date personale, precum cookies, identificatori de dispozitiv sau alte tehnologii similare pe dispozitivul dumneavoastră și procesa astfel de date pentru a personaliza conținutul și reclamele, dar și pentru a oferi caracteristici de social media și pentru a analiza traficul.

  • Stocarea și/sau accesarea informațiilor pe dispozitivul dumneavoastră

    Cookies, identificatori de dispozitiv sau alte informații pot fi stocate sau accesate pe dispozitiv în scopurile indicate mai sus.

  • Reclame și conținut personalizat, evaluarea reclamelor și a conținutului, informații despre audiențe și dezvoltarea produselor

    Reclamele și conținutul pot fi personalizate pe baza unui profil. Pot fi adăugate date suplimentare pentru a personaliza mai bine reclamele și conținutul. Performanța reclamelor și conținutului poate fi măsurată. Pot fi obținute informații despre utilizatorii care au văzut reclamele și conținutul. Aceste date pot fi utilizate pentru a dezvolta sau îmbunătăți experiența utilizatorilor, sistemele și software-ul.

Dând clic pe ‘Sunt de acord’, permiteți utilizarea cookie-urilor menționate, a identificatorilor de dispozitiv, balizelor web sau altor tehnologii similare. Setările pot fi modificate din browser-ul dispozitivului dumneavoastră.

În anumite scopuri, interesele legitime pot prima asupra consimțământului. Puteți citi mai multe informații în acest sens în Politica privind Confidențialitatea Datelor și Cookie.